GAOFEN 1-02

Last updated on Tue Nov 21 2023 00:02:24 GMT+0000 (Coordinated Universal Time)

1 43259U 18031A 23324.57570786 .00000946 00000+0 14281-3 0 9992 2 43259 97.8481 33.3026 0005108 117.8369 242.3359 14.76534454304040

Satellite not in orbit

GAOFEN 1-02